Regional Weather Roundup
Issued by NWS

Home | Current Version | Previous Version | Text Only | Print | Product List | Glossary Off
Versions: 1 2 3 4 5 6 7 8 9 10 11 12 13 14 15 16 17 18 19 20 21 22 23 24 25 26 27 28 29 30 31 32 33 34 35 36 37 38 39 40 41 42 43 44 45 46 47 48 49 50

000
ASUS43 KFSD 092110
RWRSD

WEATHER ROUNDUP FOR SOUTH DAKOTA
NATIONAL WEATHER SERVICE SIOUX FALLS SD
400 PM CDT WED JUL 09 2014

NOTE: "FAIR" INDICATES FEW OR NO CLOUDS BELOW 12,000 FEET WITH NO
SIGNIFICANT WEATHER AND/OR OBSTRUCTIONS TO VISIBILITY.


SDZ001>005-009-010-012>017-092200-
NORTHWEST AND NORTH CENTRAL SOUTH DAKOTA

CITY           SKY/WX    TMP DP  RH WIND       PRES   REMARKS
BUFFALO          N/A     82  52  35 SE12G21   29.93F
FAITH            N/A     80  51  36 E8        30.01S
MOBRIDGE       MOSUNNY   79  54  41 SE6       29.98F HAZE
$$

SDZ012>016-024>037-041>051-057-063-072>074-092200-
SOUTHWEST AND SOUTH CENTRAL SOUTH DAKOTA

CITY           SKY/WX    TMP DP  RH WIND       PRES   REMARKS
RAPID CTY ARPT SUNNY     79  57  46 SE10      30.02F
PIERRE         MOSUNNY   83  41  22 E5        29.97F
CUSTER         SUNNY     71  54  54 E13       30.12F
ELLSWORTH AFB  MOSUNNY   79  55  43 SE13      30.02S
PHILIP         PTSUNNY   79  53  40 SE12      29.99F
PINE RIDGE     SUNNY     82  61  48 E17G26    29.98S
WINNER         MOCLDY    74  54  49 S15       30.03R
$$

SDZ004>011-016>023-039-040-092200-
NORTHEAST SOUTH DAKOTA

CITY           SKY/WX    TMP DP  RH WIND       PRES   REMARKS
ABERDEEN       MOSUNNY   75  54  47 CALM      30.01F
WATERTOWN      SUNNY     77  52  41 N9        30.03S
SISSETON         N/A     77  53  43 VRB3      30.00F
$$

SDZ017-020-022-023-036>040-048>070-092200-
SOUTHEAST SOUTH DAKOTA

CITY           SKY/WX    TMP DP  RH WIND       PRES   REMARKS
SIOUX FALLS    MOSUNNY   82  54  37 NW3       30.00F
HURON          SUNNY     82  54  37 N7        29.99F HAZE
CHAMBERLAIN    PTSUNNY   83  56  39 SE8       29.99S
MITCHELL       MOSUNNY   83  55  38 E5        29.99F HAZE
YANKTON        SUNNY     81  57  44 CALM      30.01S
$$

ABBREVIATIONS USED IN REMARKS
   TC - TEMPERATURE IN CELSIUS
  WCI - WIND CHILL INDEX
   HX - HEAT INDEX
  VSB - VISIBILITY




USA.gov is the U.S. government's official web portal to all federal, state and local government web resources and services.